EA8CHC Sevilla ES current weather conditions

sailwx.info

Wind from 222 at 4 knots gusting 6

Air temperature 21.1° C
Dewpoint 16.1° C

Last reported at 2014-Aug-01 21:47 UTC.
Time now 2014-Aug-01 22:33 UTC

Location: N 37°26' W 006°03'.
View on Google Maps.

See reports from other nearby stations

  
Tides and Currents Weather Stations Pressure Air Temp Water Temp Dewpoint Dewpoint Depression Visibility Wind Speed Wind Dir Waves Ship Positions
date/time (UTC)wind fromknots sea level pressurealtimeterstation pressurevisibilityair tempwater tempwave heightnotes
2014-Aug-01 21:47 222 4 gusting 6 21.1
2014-Aug-01 21:42 211 3 gusting 6 21.1
2014-Aug-01 21:37 215 2 gusting 5 21.7
2014-Aug-01 21:32 215 2 gusting 5 21.7
2014-Aug-01 21:27 215 2 gusting 6 21.7
2014-Aug-01 21:22 218 3 gusting 6 21.7
2014-Aug-01 21:17 218 3 gusting 6 21.7
2014-Aug-01 21:12 223 3 gusting 6 21.7
2014-Aug-01 21:07 178 2 gusting 6 21.7
2014-Aug-01 21:02 157 2 gusting 6 22.2
2014-Aug-01 20:57 196 2 gusting 6 22.2
2014-Aug-01 20:52 195 1 gusting 6 22.2
2014-Aug-01 20:47 178 1 gusting 5 22.2
2014-Aug-01 20:42 202 2 gusting 6 22.2
2014-Aug-01 20:37 178 2 gusting 6 22.2
2014-Aug-01 20:32 178 3 gusting 6 22.2
2014-Aug-01 20:27 178 3 gusting 6 22.2
2014-Aug-01 20:22 153 2 gusting 6 22.8
2014-Aug-01 20:17 139 2 gusting 5 22.8
2014-Aug-01 20:12 186 2 gusting 8 22.8
2014-Aug-01 20:07 193 3 gusting 8 22.8
2014-Aug-01 20:02 207 3 gusting 8 22.8
2014-Aug-01 19:57 207 4 gusting 10 22.8
2014-Aug-01 19:52 184 5 gusting 11 22.8
2014-Aug-01 19:47 205 5 gusting 11 23.3
2014-Aug-01 19:42 164 5 gusting 11 23.3
2014-Aug-01 19:37 198 4 gusting 11 23.3
2014-Aug-01 19:32 242 5 gusting 11 23.3
2014-Aug-01 19:27 204 6 gusting 15 23.3
2014-Aug-01 19:22 232 6 gusting 15 23.3
2014-Aug-01 19:17 236 7 gusting 15 23.3
2014-Aug-01 19:12 221 8 gusting 15 23.3
2014-Aug-01 19:07 213 8 gusting 15 23.9
2014-Aug-01 19:02 220 7 gusting 17 23.9
2014-Aug-01 18:57 203 8 gusting 17 23.9
2014-Aug-01 18:52 217 9 gusting 17 24.4
2014-Aug-01 18:47 233 8 gusting 17 24.4
2014-Aug-01 18:42 237 9 gusting 17 24.4
2014-Aug-01 18:37 219 10 gusting 19 24.4
2014-Aug-01 18:32 211 11 gusting 19 25.0
2014-Aug-01 18:27 225 11 gusting 19 25.0
2014-Aug-01 18:22 222 10 gusting 17 25.0
2014-Aug-01 18:17 236 10 gusting 19 25.6
2014-Aug-01 18:12 229 11 gusting 19 25.6
2014-Aug-01 18:07 196 13 gusting 19 25.6
2014-Aug-01 18:02 233 11 gusting 19 26.1
2014-Aug-01 17:57 220 11 gusting 19 26.1
2014-Aug-01 17:52 217 12 gusting 19 26.7
2014-Aug-01 17:47 194 12 gusting 19 26.7
2014-Aug-01 17:42 221 12 gusting 19 26.7
2014-Aug-01 17:37 257 11 gusting 19 27.2
2014-Aug-01 17:32 167 10 gusting 19 27.2
2014-Aug-01 17:27 196 10 gusting 18 27.2
2014-Aug-01 17:22 192 8 gusting 18 27.8
2014-Aug-01 17:17 254 6 gusting 13 28.3
2014-Aug-01 17:12 186 6 gusting 12 28.3
2014-Aug-01 17:07 227 6 gusting 11 28.3
2014-Aug-01 17:02 204 6 gusting 12 28.3
2014-Aug-01 16:57 182 5 gusting 12 28.3
2014-Aug-01 16:52 214 5 gusting 12 28.3
2014-Aug-01 16:47 193 5 gusting 12 28.3
2014-Aug-01 16:42 211 6 gusting 12 28.3
2014-Aug-01 16:37 227 6 gusting 12 28.3
2014-Aug-01 16:32 228 4 gusting 10 28.3
2014-Aug-01 16:27 215 4 gusting 12 28.3
2014-Aug-01 16:22 212 5 gusting 12 28.3
2014-Aug-01 16:17 207 6 gusting 12 28.3
2014-Aug-01 16:12 237 5 gusting 10 28.3
2014-Aug-01 16:07 209 4 gusting 10 27.8
2014-Aug-01 16:02 274 5 gusting 10 27.8
2014-Aug-01 15:57 260 4 gusting 10 27.8
2014-Aug-01 15:52 207 4 gusting 14 27.8
2014-Aug-01 15:47 197 6 gusting 14 27.8
2014-Aug-01 15:42 267 5 gusting 14 27.8
2014-Aug-01 15:37 221 4 gusting 9 27.8
2014-Aug-01 15:32 329 5 gusting 9 27.2
2014-Aug-01 15:27 232 5 gusting 8 27.2
2014-Aug-01 15:22 224 5 gusting 9 27.8
2014-Aug-01 15:17 253 4 gusting 9 27.8
2014-Aug-01 15:12 249 4 gusting 13 27.2
2014-Aug-01 15:07 217 5 gusting 13 27.2
2014-Aug-01 15:02 202 6 gusting 13 27.2
2014-Aug-01 14:57 229 5 gusting 13 26.7
2014-Aug-01 14:52 191 3 gusting 9 27.2
2014-Aug-01 14:47 311 3 gusting 12 27.2
2014-Aug-01 14:42 212 4 gusting 12 26.7
2014-Aug-01 14:37 263 5 gusting 12 26.7
2014-Aug-01 14:32 260 5 gusting 13 26.7
2014-Aug-01 14:27 294 5 gusting 13 26.1
2014-Aug-01 14:22 193 6 gusting 13 26.1
2014-Aug-01 14:17 277 6 gusting 13 25.6
2014-Aug-01 14:12 252 6 gusting 13 25.6
2014-Aug-01 14:07 248 4 gusting 13 25.6
2014-Aug-01 14:02 304 5 gusting 13 25.6
2014-Aug-01 13:57 257 6 gusting 13 25.6
2014-Aug-01 13:52 277 6 gusting 12 26.1
2014-Aug-01 13:47 278 6 gusting 12 26.1
2014-Aug-01 13:42 308 5 gusting 13 25.6
2014-Aug-01 13:37 311 6 gusting 13 25.6
2014-Aug-01 13:32 253 5 gusting 13 25.6
2014-Aug-01 13:27 269 4 gusting 13 25.6
2014-Aug-01 13:22 267 5 gusting 13 25.0
2014-Aug-01 13:17 281 6 gusting 11 25.0
2014-Aug-01 13:12 314 5 gusting 11 25.0
2014-Aug-01 13:07 292 5 gusting 11 25.0
2014-Aug-01 13:02 269 6 gusting 11 25.0
2014-Aug-01 12:57 253 6 gusting 11 25.0
2014-Aug-01 12:52 286 5 gusting 11 25.0
2014-Aug-01 12:47 288 5 gusting 12 24.4
2014-Aug-01 12:42 267 6 gusting 12 24.4
2014-Aug-01 12:37 261 6 gusting 12 24.4
2014-Aug-01 12:32 286 5 gusting 11 24.4
2014-Aug-01 12:27 316 5 gusting 11 24.4
2014-Aug-01 12:22 249 5 gusting 10 24.4
2014-Aug-01 12:17 253 3 gusting 11 24.4
2014-Aug-01 12:12 243 4 gusting 11 24.4
2014-Aug-01 12:07 290 5 gusting 11 24.4
2014-Aug-01 12:02 228 3 gusting 11 24.4
2014-Aug-01 11:57 194 3 gusting 9 24.4
2014-Aug-01 11:52 242 4 gusting 9 23.9
2014-Aug-01 11:47 217 4 gusting 10 23.9
2014-Aug-01 11:42 261 4 gusting 10 23.9
2014-Aug-01 11:37 266 5 gusting 10 23.9
2014-Aug-01 11:32 253 6 gusting 9 23.3
2014-Aug-01 11:27 220 6 gusting 11 23.3
2014-Aug-01 11:22 282 4 gusting 11 23.3
2014-Aug-01 11:17 258 4 gusting 10 23.3
2014-Aug-01 11:12 233 3 gusting 10 23.3
2014-Aug-01 11:07 253 2 gusting 8 23.3
2014-Aug-01 11:02 288 3 gusting 8 22.8
2014-Aug-01 10:57 264 5 gusting 10 22.8
2014-Aug-01 10:52 276 5 gusting 10 22.8
2014-Aug-01 10:47 269 5 gusting 10 22.2
2014-Aug-01 10:42 239 4 gusting 8 22.2
2014-Aug-01 10:37 232 4 gusting 8 22.2
2014-Aug-01 10:32 215 5 gusting 9 22.2
2014-Aug-01 10:27 232 5 gusting 9 21.7
2014-Aug-01 10:22 252 5 gusting 9 21.7
2014-Aug-01 10:17 257 5 gusting 9 21.7
2014-Aug-01 10:12 198 5 gusting 9 21.7
2014-Aug-01 10:07 219 4 gusting 9 21.7
2014-Aug-01 10:02 210 4 gusting 9 21.7
2014-Aug-01 09:57 239 5 gusting 9 21.7
2014-Aug-01 09:52 229 5 gusting 9 21.7
2014-Aug-01 09:47 228 5 gusting 11 21.7
2014-Aug-01 09:42 238 5 gusting 11 21.7
2014-Aug-01 09:37 220 4 gusting 11 21.7
2014-Aug-01 09:32 233 5 gusting 12 21.7
2014-Aug-01 09:27 225 6 gusting 12 21.1
2014-Aug-01 09:22 229 6 gusting 12 21.1
2014-Aug-01 09:17 219 6 gusting 11 21.1
2014-Aug-01 09:12 240 6 gusting 11 21.1
2014-Aug-01 09:07 226 6 gusting 11 21.1
2014-Aug-01 09:02 207 4 gusting 8 21.1
2014-Aug-01 08:57 265 4 gusting 8 20.6
2014-Aug-01 08:52 219 3 gusting 8 20.6
2014-Aug-01 08:47 246 4 gusting 7 20.6
2014-Aug-01 08:42 223 4 gusting 7 20.6
2014-Aug-01 08:37 243 3 gusting 6 20.6
2014-Aug-01 08:32 232 3 gusting 6 20.0
2014-Aug-01 08:27 217 3 gusting 7 20.0
2014-Aug-01 08:22 223 4 gusting 7 20.0
2014-Aug-01 08:17 227 3 gusting 7 20.0
2014-Aug-01 08:12 247 2 gusting 6 19.4
2014-Aug-01 08:07 267 3 gusting 6 19.4
2014-Aug-01 08:02 272 3 gusting 7 19.4
2014-Aug-01 07:57 271 4 gusting 7 19.4
2014-Aug-01 07:52 267 5 gusting 7 18.9
2014-Aug-01 07:47 262 5 gusting 7 18.9
2014-Aug-01 07:42 268 5 gusting 7 18.9
2014-Aug-01 07:37 274 4 gusting 7 18.9
2014-Aug-01 07:32 269 3 gusting 6 18.9
2014-Aug-01 07:27 263 2 gusting 6 18.9
2014-Aug-01 07:22 265 1 gusting 6 18.9
2014-Aug-01 07:17 250 1 gusting 5 18.9
2014-Aug-01 07:12 277 2 gusting 5 18.3
2014-Aug-01 07:07 288 1 gusting 5 18.3
2014-Aug-01 07:02 281 2 gusting 5 18.3
2014-Aug-01 06:57 281 2 gusting 6 18.3
2014-Aug-01 06:52 280 2 gusting 6 18.3
2014-Aug-01 06:47 238 3 gusting 6 18.3
2014-Aug-01 06:42 252 3 gusting 6 18.3
2014-Aug-01 06:37 273 3 gusting 6 18.3
2014-Aug-01 06:32 217 2 gusting 6 18.3
2014-Aug-01 06:27 252 2 gusting 6 18.3
2014-Aug-01 06:22 261 2 gusting 6 18.3
2014-Aug-01 06:17 267 3 gusting 7 18.3
2014-Aug-01 06:12 246 3 gusting 7 18.3
2014-Aug-01 06:07 269 3 gusting 6 18.3
2014-Aug-01 06:02 254 3 gusting 6 18.3
2014-Aug-01 05:57 238 2 gusting 6 18.3
2014-Aug-01 05:52 254 1 gusting 6 18.3
2014-Aug-01 05:47 243 2 gusting 6 18.3
2014-Aug-01 05:42 241 2 gusting 6 18.3
2014-Aug-01 05:37 238 2 gusting 6 18.3
2014-Aug-01 05:32 266 2 gusting 6 18.3
2014-Aug-01 05:27 259 1 gusting 6 18.3
2014-Aug-01 05:22 230 1 gusting 5 18.3
2014-Aug-01 05:17 250 1 gusting 4 18.3
2014-Aug-01 05:12 223 0 gusting 4 18.3
2014-Aug-01 05:07 223 0 gusting 3 18.3
2014-Aug-01 05:02 223 1 gusting 3 18.3
2014-Aug-01 04:57 223 1 gusting 3 18.3
2014-Aug-01 04:52 223 0 gusting 2 18.3
2014-Aug-01 04:47 223 0 gusting 3 18.3
2014-Aug-01 04:42 223 0 gusting 3 18.3
2014-Aug-01 04:37 223 0 gusting 3 18.3
2014-Aug-01 04:32 223 0 gusting 3 18.3
2014-Aug-01 04:27 223 1 gusting 4 18.3
2014-Aug-01 04:22 223 1 gusting 5 18.3
2014-Aug-01 04:17 223 2 gusting 5 18.9
2014-Aug-01 04:12 223 2 gusting 6 18.9
2014-Aug-01 04:07 232 3 gusting 6 18.9
2014-Aug-01 04:02 225 3 gusting 6 18.9
2014-Aug-01 03:57 207 2 gusting 5 18.9
2014-Aug-01 03:52 225 1 gusting 5 18.9
2014-Aug-01 03:47 211 1 gusting 3 18.9
2014-Aug-01 03:42 211 1 gusting 3 18.9
2014-Aug-01 03:37 211 0 gusting 2 19.4
2014-Aug-01 03:32 211 19.4
2014-Aug-01 03:27 211 0 gusting 2 19.4
2014-Aug-01 03:22 211 0 gusting 2 18.9
2014-Aug-01 03:17 211 0 gusting 3 18.9
2014-Aug-01 03:12 211 18.9
2014-Aug-01 03:07 211 0 gusting 5 18.9
2014-Aug-01 03:02 211 0 gusting 6 18.9
2014-Aug-01 02:57 211 1 gusting 6 18.9
2014-Aug-01 02:52 211 2 gusting 6 18.9
2014-Aug-01 02:47 183 2 gusting 6 18.9
2014-Aug-01 02:42 177 2 gusting 6 18.9
2014-Aug-01 02:37 192 3 gusting 5 18.9
2014-Aug-01 02:32 174 3 gusting 5 18.9
2014-Aug-01 02:27 169 2 gusting 6 18.9
2014-Aug-01 02:22 176 2 gusting 6 19.4
2014-Aug-01 02:17 170 3 gusting 6 19.4
2014-Aug-01 02:12 192 3 gusting 6 19.4
2014-Aug-01 02:07 153 3 gusting 6 19.4
2014-Aug-01 02:02 181 3 gusting 6 19.4
2014-Aug-01 01:57 153 3 gusting 6 19.4
2014-Aug-01 01:52 157 3 gusting 6 19.4
2014-Aug-01 01:47 166 3 gusting 6 19.4
2014-Aug-01 01:42 138 3 gusting 6 19.4
2014-Aug-01 01:37 178 3 gusting 6 19.4
2014-Aug-01 01:32 144 2 gusting 6 19.4
2014-Aug-01 01:27 143 1 gusting 6 19.4
2014-Aug-01 01:22 175 1 gusting 10 19.4
2014-Aug-01 01:17 167 2 gusting 10 19.4
2014-Aug-01 01:12 195 2 gusting 10 19.4
2014-Aug-01 01:07 165 2 gusting 6 19.4
2014-Aug-01 01:02 189 2 gusting 6 19.4
2014-Aug-01 00:57 219 2 gusting 6 19.4
2014-Aug-01 00:52 204 1 gusting 5 19.4
2014-Aug-01 00:47 202 0 gusting 5 19.4
2014-Aug-01 00:42 151 0 gusting 5 19.4
2014-Aug-01 00:37 151 2 gusting 5 19.4
2014-Aug-01 00:32 140 3 gusting 6 19.4
2014-Aug-01 00:27 116 3 gusting 6 19.4
2014-Aug-01 00:22 110 2 gusting 6 19.4
2014-Aug-01 00:17 101 2 gusting 6 19.4
2014-Aug-01 00:12 097 2 gusting 6 19.4
2014-Aug-01 00:07 117 1 gusting 6 19.4
2014-Aug-01 00:02 159 1 gusting 6 19.4
2014-Jul-31 23:57 148 2 gusting 6 19.4
2014-Jul-31 23:52 225 2 gusting 5 19.4
2014-Jul-31 23:47 173 2 gusting 5 19.4
2014-Jul-31 23:42 181 2 gusting 2 19.4
2014-Jul-31 23:37 143 1 gusting 2 20.0
2014-Jul-31 23:32 139 0 gusting 6 20.0
2014-Jul-31 23:27 215 0 gusting 6 20.0
2014-Jul-31 23:22 215 1 gusting 4 20.0
2014-Jul-31 23:17 215 1 gusting 4 20.0
2014-Jul-31 23:12 224 0 gusting 3 20.0
2014-Jul-31 23:07 224 20.0
2014-Jul-31 23:02 224 0 gusting 2 20.0
2014-Jul-31 22:57 224 0 gusting 2 20.0
2014-Jul-31 22:52 224 0 gusting 4 20.0
2014-Jul-31 22:47 224 0 gusting 4 20.0
2014-Jul-31 22:42 224 1 gusting 6 20.0
2014-Jul-31 22:37 224 1 gusting 6 20.6
2014-Jul-31 22:32 227 1 gusting 5 20.6
2014-Jul-31 22:27 227 1 gusting 5 20.6
2014-Jul-31 22:22 230 1 gusting 7 20.6
2014-Jul-31 22:17 230 1 gusting 7 20.6
2014-Jul-31 22:12 258 3 gusting 7 20.6
2014-Jul-31 22:07 275 3 gusting 7 20.6
2014-Jul-31 22:02 225 2 gusting 8 20.6
2014-Jul-31 21:57 271 2 gusting 8 20.6
2014-Jul-31 21:52 288 2 gusting 9 20.6
2014-Jul-31 21:47 254 2 gusting 9 20.6
2014-Jul-31 21:42 251 3 gusting 10 20.6
2014-Jul-31 21:37 236 4 gusting 10 20.6
2014-Jul-31 21:32 250 4 gusting 13 21.1
2014-Jul-31 21:27 286 4 gusting 13 21.1
2014-Jul-31 21:22 280 4 gusting 11 21.1
2014-Jul-31 21:17 244 4 gusting 11 21.1
2014-Jul-31 21:12 254 5 gusting 11 21.1
2014-Jul-31 21:07 250 5 gusting 11 21.7
2014-Jul-31 21:02 272 6 gusting 11 21.7
2014-Jul-31 20:57 216 5 gusting 11 21.7
2014-Jul-31 20:52 239 4 gusting 11 21.7
2014-Jul-31 20:47 225 5 gusting 11 21.7
2014-Jul-31 20:42 230 5 gusting 11 21.7
2014-Jul-31 20:37 218 5 gusting 11 22.2
2014-Jul-31 20:32 199 6 gusting 12 22.2
2014-Jul-31 20:27 257 5 gusting 12 22.2
2014-Jul-31 20:22 228 5 gusting 12 22.2
2014-Jul-31 20:17 248 6 gusting 12 22.8
2014-Jul-31 20:12 222 6 gusting 13 22.8
2014-Jul-31 20:07 242 6 gusting 13 22.8
2014-Jul-31 20:02 235 6 gusting 13 22.8
2014-Jul-31 19:57 220 6 gusting 13 22.8
2014-Jul-31 19:52 224 6 gusting 13 23.3
2014-Jul-31 19:47 210 6 gusting 13 23.3
2014-Jul-31 19:42 208 6 gusting 13 23.3
2014-Jul-31 19:37 221 6 gusting 13 23.3
2014-Jul-31 19:32 229 6 gusting 12 23.9
2014-Jul-31 19:27 242 6 gusting 12 23.9
2014-Jul-31 19:22 208 6 gusting 12 23.9
2014-Jul-31 19:17 203 6 gusting 12 24.4
2014-Jul-31 19:12 229 6 gusting 13 24.4
2014-Jul-31 19:07 220 6 gusting 13 24.4
2014-Jul-31 19:02 210 6 gusting 13 24.4
2014-Jul-31 18:57 211 6 gusting 13 25.0
2014-Jul-31 18:52 231 6 gusting 16 25.0
2014-Jul-31 18:47 219 6 gusting 16 25.0
2014-Jul-31 18:42 230 6 gusting 15 25.0
2014-Jul-31 18:37 232 6 gusting 15 25.6
2014-Jul-31 18:32 274 7 gusting 13 25.6
2014-Jul-31 18:27 219 7 gusting 13 25.6
2014-Jul-31 18:22 235 8 gusting 16 25.6
2014-Jul-31 18:17 278 7 gusting 16 26.1
2014-Jul-31 18:12 229 7 gusting 16 26.1
2014-Jul-31 18:07 247 8 gusting 16 26.1
2014-Jul-31 18:02 252 8 gusting 16 26.1
2014-Jul-31 17:57 232 8 gusting 16 26.7
2014-Jul-31 17:52 229 8 gusting 17 26.7
2014-Jul-31 17:47 249 8 gusting 17 26.7
2014-Jul-31 17:42 199 8 gusting 16 26.7
2014-Jul-31 17:37 245 9 gusting 16 26.7
2014-Jul-31 17:32 219 9 gusting 16 26.7
2014-Jul-31 17:27 232 9 gusting 16 27.2
2014-Jul-31 17:22 221 9 gusting 14 27.2
2014-Jul-31 17:17 281 7 gusting 14 27.8
2014-Jul-31 17:12 222 6 gusting 15 27.8
2014-Jul-31 17:07 253 6 gusting 15 27.8
2014-Jul-31 17:02 211 7 gusting 17 27.8
2014-Jul-31 16:57 238 8 gusting 17 27.8
2014-Jul-31 16:52 198 8 gusting 17 27.8
2014-Jul-31 16:47 230 8 gusting 17 27.8
2014-Jul-31 16:42 192 8 gusting 17 27.8
2014-Jul-31 16:37 184 7 gusting 17 27.8
2014-Jul-31 16:32 219 8 gusting 16 27.8
2014-Jul-31 16:27 185 7 gusting 16 27.8
2014-Jul-31 16:22 168 8 gusting 16 27.8
2014-Jul-31 16:17 169 8 gusting 16 27.8
2014-Jul-31 16:12 241 8 gusting 16 27.8
2014-Jul-31 16:07 203 7 gusting 16 27.8
2014-Jul-31 16:02 231 7 gusting 13 28.3
2014-Jul-31 15:57 231 7 gusting 13 27.8
2014-Jul-31 15:52 247 6 gusting 13 28.3
2014-Jul-31 15:47 227 6 gusting 13 28.3
2014-Jul-31 15:42 236 6 gusting 12 28.3
2014-Jul-31 15:37 248 6 gusting 12 28.3
2014-Jul-31 15:32 207 6 gusting 12 28.3
2014-Jul-31 15:27 246 6 gusting 12 28.3
2014-Jul-31 15:22 267 6 gusting 12 28.3
2014-Jul-31 15:17 190 6 gusting 12 28.3
2014-Jul-31 15:12 167 5 gusting 13 28.3
2014-Jul-31 15:07 173 5 gusting 13 28.3
2014-Jul-31 15:02 217 6 gusting 13 28.3
2014-Jul-31 14:57 199 6 gusting 13 28.3
2014-Jul-31 14:52 192 6 gusting 13 28.3
2014-Jul-31 14:47 208 6 gusting 13 28.3
2014-Jul-31 14:42 215 6 gusting 12 28.3
2014-Jul-31 14:37 171 6 gusting 12 27.8
2014-Jul-31 14:32 222 6 gusting 13 28.3
2014-Jul-31 14:27 177 5 gusting 13 27.8
2014-Jul-31 14:22 224 6 gusting 15 27.8
2014-Jul-31 14:17 248 6 gusting 15 27.8
2014-Jul-31 14:12 171 6 gusting 15 27.8
2014-Jul-31 14:07 191 6 gusting 15 27.8
2014-Jul-31 14:02 217 6 gusting 13 27.8
2014-Jul-31 13:57 194 5 gusting 13 27.8
2014-Jul-31 13:52 217 5 gusting 13 27.8
2014-Jul-31 13:47 224 6 gusting 13 27.2
2014-Jul-31 13:42 223 6 gusting 13 27.2
2014-Jul-31 13:37 206 5 gusting 13 27.2
2014-Jul-31 13:32 199 6 gusting 11 27.2
2014-Jul-31 13:27 169 5 gusting 11 27.2
2014-Jul-31 13:22 218 4 gusting 13 27.2
2014-Jul-31 13:17 255 5 gusting 13 26.7
2014-Jul-31 13:12 219 6 gusting 10 26.7
2014-Jul-31 13:07 202 6 gusting 10 26.7
2014-Jul-31 13:02 222 5 gusting 10 26.7
2014-Jul-31 12:57 318 4 gusting 10 26.7
2014-Jul-31 12:52 230 5 gusting 9 26.7
2014-Jul-31 12:47 234 4 gusting 9 26.1
2014-Jul-31 12:42 234 4 gusting 6 25.6
2014-Jul-31 12:37 263 3 gusting 6 25.6
2014-Jul-31 12:32 269 1 gusting 8 25.6
2014-Jul-31 12:27 134 1 gusting 8 25.0
2014-Jul-31 12:22 238 1 gusting 11 25.0
2014-Jul-31 12:17 242 2 gusting 11 24.4
2014-Jul-31 12:12 205 3 gusting 11 24.4
2014-Jul-31 12:07 226 4 gusting 11 23.9
2014-Jul-31 12:02 278 6 gusting 10 23.9
2014-Jul-31 11:57 261 4 gusting 10 24.4
2014-Jul-31 11:52 234 4 gusting 6 23.9
2014-Jul-31 11:47 244 4 gusting 6 23.9
2014-Jul-31 11:42 239 2 gusting 8 23.9
2014-Jul-31 11:37 229 2 gusting 8 23.9
2014-Jul-31 11:32 229 3 gusting 8 23.3
2014-Jul-31 11:27 234 3 gusting 8 23.3
2014-Jul-31 11:22 229 3 gusting 8 23.3
2014-Jul-31 11:17 244 3 gusting 8 23.3
2014-Jul-31 11:12 263 3 gusting 7 23.3
2014-Jul-31 11:07 236 2 gusting 7 23.3
2014-Jul-31 11:02 227 2 gusting 9 22.8
2014-Jul-31 10:57 221 3 gusting 9 22.8
2014-Jul-31 10:52 225 3 gusting 9 22.8
2014-Jul-31 10:47 227 4 gusting 9 22.2
2014-Jul-31 10:42 194 5 gusting 6 22.2
2014-Jul-31 10:37 246 3 gusting 6 22.2
2014-Jul-31 10:32 202 2 gusting 6 22.2
2014-Jul-31 10:27 263 3 gusting 6 22.2
2014-Jul-31 10:22 211 3 gusting 7 21.7
2014-Jul-31 10:17 269 3 gusting 7 21.7
2014-Jul-31 10:12 253 3 gusting 6 21.7
2014-Jul-31 10:07 262 2 gusting 6 21.7
2014-Jul-31 10:02 223 2 gusting 8 21.7
2014-Jul-31 09:57 227 2 gusting 8 21.7
2014-Jul-31 09:52 227 3 gusting 7 21.7
2014-Jul-31 09:47 257 4 gusting 7 21.1
2014-Jul-31 09:42 190 4 gusting 7 21.1
2014-Jul-31 09:37 254 4 gusting 7 21.1
2014-Jul-31 09:32 195 4 gusting 7 21.1
2014-Jul-31 09:27 232 4 gusting 7 21.1
2014-Jul-31 09:22 254 3 gusting 6 21.1
2014-Jul-31 09:17 232 3 gusting 6 21.1
2014-Jul-31 09:12 245 3 gusting 8 21.1
2014-Jul-31 09:07 228 3 gusting 8 21.1
2014-Jul-31 09:02 230 4 gusting 8 21.1
2014-Jul-31 08:57 242 4 gusting 8 21.1
2014-Jul-31 08:52 201 4 gusting 7 21.1
2014-Jul-31 08:47 236 4 gusting 7 21.1
2014-Jul-31 08:42 240 3 gusting 7 21.1
2014-Jul-31 08:37 234 4 gusting 7 21.1
2014-Jul-31 08:32 246 4 gusting 7 20.6
2014-Jul-31 08:27 221 3 gusting 7 20.6
2014-Jul-31 08:22 223 4 gusting 8 20.6
2014-Jul-31 08:17 227 4 gusting 8 20.6
2014-Jul-31 08:12 213 4 gusting 8 20.6
2014-Jul-31 08:07 234 5 gusting 8 20.6
2014-Jul-31 08:02 227 5 gusting 9 20.6
2014-Jul-31 07:57 211 5 gusting 9 20.6
2014-Jul-31 07:52 221 5 gusting 10 20.6
2014-Jul-31 07:47 204 5 gusting 10 20.6
2014-Jul-31 07:42 225 5 gusting 8 20.6
2014-Jul-31 07:37 226 5 gusting 8 20.6
2014-Jul-31 07:32 217 5 gusting 7 20.6
2014-Jul-31 07:27 228 4 gusting 7 20.6
2014-Jul-31 07:22 232 4 gusting 7 20.0
2014-Jul-31 07:17 225 4 gusting 7 20.0
2014-Jul-31 07:12 233 4 gusting 7 20.0
2014-Jul-31 07:07 211 4 gusting 7 20.0
2014-Jul-31 07:02 234 2 gusting 7 20.0
2014-Jul-31 06:57 223 2 gusting 7 20.0
2014-Jul-31 06:52 215 2 gusting 7 20.0
2014-Jul-31 06:47 233 2 gusting 7 19.4
2014-Jul-31 06:42 228 2 gusting 5 19.4
2014-Jul-31 06:37 205 1 gusting 5 19.4
2014-Jul-31 06:32 208 0 gusting 4 19.4
2014-Jul-31 06:27 208 0 gusting 4 19.4
2014-Jul-31 06:22 208 1 gusting 4 19.4
2014-Jul-31 06:17 210 1 gusting 4 19.4
2014-Jul-31 06:12 212 1 gusting 4 19.4
2014-Jul-31 06:07 212 1 gusting 3 18.9
2014-Jul-31 06:02 212 1 gusting 3 18.9
2014-Jul-31 05:57 212 1 gusting 3 18.9
2014-Jul-31 05:52 213 0 gusting 3 18.9
2014-Jul-31 05:47 318 0 gusting 3 18.9
2014-Jul-31 04:47 219 6 gusting 15 18.9
2014-Jul-31 04:42 223 7 gusting 15 18.9
2014-Jul-31 04:37 199 7 gusting 15 18.9
2014-Jul-31 04:32 166 7 gusting 13 18.9
2014-Jul-31 04:27 217 7 gusting 13 18.9
2014-Jul-31 04:22 211 7 gusting 13 18.9
2014-Jul-31 04:17 221 7 gusting 13 18.9
2014-Jul-31 04:12 223 6 gusting 9 18.9
2014-Jul-31 04:07 186 5 gusting 9 19.4
2014-Jul-31 04:02 199 2 gusting 6 19.4
2014-Jul-31 03:57 144 0 gusting 6 19.4
2014-Jul-31 03:52 148 0 gusting 9 19.4
2014-Jul-31 03:47 233 3 gusting 9 19.4
2014-Jul-31 03:42 215 4 gusting 7 19.4
2014-Jul-31 03:37 203 3 gusting 7 19.4
2014-Jul-31 03:32 212 3 gusting 6 20.0
2014-Jul-31 03:27 173 3 gusting 6 20.0
2014-Jul-31 03:22 182 2 gusting 6 20.0
2014-Jul-31 03:17 218 3 gusting 6 20.0
2014-Jul-31 03:12 227 2 gusting 6 20.0
2014-Jul-31 03:07 213 0 gusting 6 20.0
2014-Jul-31 03:02 248 0 gusting 6 20.0
2014-Jul-31 02:57 248 1 gusting 6 20.0
2014-Jul-31 02:54 252 2 gusting 6 20.0
2014-Jul-31 02:47 232 1 gusting 6 20.0
2014-Jul-31 02:42 157 1 gusting 6 20.0
2014-Jul-31 02:37 157 1 gusting 6 20.0
2014-Jul-31 02:32 181 1 gusting 6 20.6
2014-Jul-31 02:27 227 1 gusting 6 20.6
2014-Jul-31 02:22 226 1 gusting 6 20.6
2014-Jul-31 02:17 226 2 gusting 6 20.6
2014-Jul-31 02:12 260 2 gusting 6 20.6
2014-Jul-31 02:07 245 1 gusting 6 20.6
2014-Jul-31 02:02 227 1 gusting 6 20.6
2014-Jul-31 01:57 215 2 gusting 6 20.6
2014-Jul-31 01:52 208 2 gusting 6 20.6
2014-Jul-31 01:47 208 3 gusting 6 20.6
2014-Jul-31 01:42 223 3 gusting 4 21.1
2014-Jul-31 01:37 228 2 gusting 4 21.1
2014-Jul-31 01:32 226 0 gusting 6 21.1
2014-Jul-31 01:27 226 0 gusting 6 21.1
2014-Jul-31 01:22 226 1 gusting 6 21.1
2014-Jul-31 01:17 227 1 gusting 6 21.7
2014-Jul-31 01:12 250 1 gusting 8 21.7
2014-Jul-31 01:07 284 2 gusting 8 21.7
2014-Jul-31 01:02 271 3 gusting 8 21.7
2014-Jul-31 00:57 265 4 gusting 8 21.7
2014-Jul-31 00:52 222 5 gusting 5 22.2
2014-Jul-31 00:47 228 3 gusting 5 22.2
2014-Jul-31 00:42 227 2 gusting 6 22.2
2014-Jul-31 00:37 246 3 gusting 6 22.2
2014-Jul-31 00:32 228 3 gusting 6 22.2
2014-Jul-31 00:27 218 3 gusting 6 22.2
2014-Jul-31 00:22 248 3 gusting 8 22.2
2014-Jul-31 00:17 235 3 gusting 8 22.2
2014-Jul-31 00:12 219 4 gusting 7 22.2
2014-Jul-31 00:07 230 5 gusting 7 22.8
2014-Jul-31 00:02 268 5 gusting 7 22.8
2014-Jul-30 23:57 229 4 gusting 7 22.8
2014-Jul-30 23:52 227 3 gusting 6 22.8
2014-Jul-30 23:47 211 3 gusting 6 22.8
2014-Jul-30 23:42 217 3 gusting 6 22.8
2014-Jul-30 23:37 194 3 gusting 6 22.8
2014-Jul-30 23:32 219 3 gusting 6 22.8
2014-Jul-30 23:27 197 3 gusting 6 23.3
2014-Jul-30 23:22 205 2 gusting 6 23.3
2014-Jul-30 23:17 190 2 gusting 6 23.3
2014-Jul-30 23:12 196 3 gusting 7 23.3
2014-Jul-30 23:07 204 4 gusting 7 23.3
2014-Jul-30 23:02 167 4 gusting 6 23.3
2014-Jul-30 22:57 185 3 gusting 6 23.9
2014-Jul-30 22:52 178 2 gusting 5 23.9
2014-Jul-30 22:47 213 2 gusting 5 23.9
2014-Jul-30 22:42 214 2 gusting 3 23.9
2014-Jul-30 22:37 223 1 gusting 3 23.9
2014-Jul-30 22:32 224 1 gusting 5 24.4
2014-Jul-30 22:27 224 1 gusting 5 24.4
2014-Jul-30 22:22 224 1 gusting 5 24.4
2014-Jul-30 22:17 224 2 gusting 5 24.4
2014-Jul-30 22:12 210 2 gusting 5 24.4
2014-Jul-30 22:07 211 2 gusting 5 24.4
2014-Jul-30 22:02 224 1 gusting 7 24.4